Regional Weather Roundup
Issued by NWS

Home | Current Version | Previous Version | Graphics & Text | Print | Product List | Glossary On
Versions: 1 2 3 4 5 6 7 8 9 10 11 12 13 14 15 16 17 18 19 20 21 22 23 24 25 26 27 28 29 30 31 32 33 34 35 36 37 38 39 40 41 42 43 44 45 46 47 48 49 50
000
ASUS45 KBOI 041010
RWRID

IDAHO REGIONAL WEATHER ROUNDUP
NATIONAL WEATHER SERVICE BOISE ID
400 AM MDT TUE AUG 04 2015

NOTE: "FAIR" INDICATES FEW OR NO CLOUDS BELOW 12000 FEET
WITH NO SIGNIFICANT WEATHER AND/OR OBSTRUCTIONS TO VISIBILITY

IDZ012-014-041100-
SOUTHWEST IDAHO


CITY           SKY/WX    TMP DP  RH WIND       PRES   REMARKS
BOISE          LGT RAIN  72  52  49 N21G26    29.96F
CALDWELL       CLOUDY    72  48  43 N6          N/A
MOUNTAIN HOME  PTCLDY    73  49  44 N28G37    29.96S
$$

IDZ016-017-041100-
SOUTHCENTRAL IDAHO


CITY           SKY/WX    TMP DP  RH WIND       PRES   REMARKS
BURLEY         CLEAR     59  53  80 CALM      29.99F
JEROME         CLEAR     60  52  74 N8        30.01R
TWIN FALLS     CLEAR     67  48  50 VRB3      29.99R
$$

IDZ019>023-041100-
SOUTHEAST IDAHO


CITY           SKY/WX    TMP DP  RH WIND       PRES   REMARKS
IDAHO FALLS    CLOUDY    60  55  83 N7        30.10S
POCATELLO      CLEAR     60  57  89 E6        30.07S
REXBURG        LGT RAIN  58  56  93 N3        30.12R
$$

IDZ006-010-011-018-031-032-041100-
CENTRAL IDAHO MOUNTAINS


CITY           SKY/WX    TMP DP  RH WIND       PRES   REMARKS
MCCALL         PTCLDY    51  45  79 CALM      30.10R
HAILEY         CLEAR     55  45  67 NW9       30.12S
STANLEY          N/A     44  38  79 NW3       30.20R
SALMON         MOCLDY    63  46  55 CALM      29.98R
CHALLIS        PTCLDY    59  44  57 CALM      30.07R
$$

IDZ002-004-006-007-026-041100-
NORTHERN IDAHO


CITY           SKY/WX    TMP DP  RH WIND       PRES   REMARKS
LEWISTON       CLEAR     74  48  39 NW3       29.86R
LOWELL           N/A     63  51  65 N3        29.92S
COEUR D`ALENE  CLOUDY    70  48  46 CALM      29.88S
MULLAN PASS    CLOUDY    60  40  47 SW6       30.08S
$$


USA.gov is the U.S. government's official web portal to all federal, state and local government web resources and services.